Home > Weather > Brownsville > Past weeks

Flag for U.S.A. Weather for the Past 2 Weeks in Brownsville, Texas, U.S.A.

Now
50 °F

Clear.


Feels Like: 50 °F
Forecast: 44 / 73 °F
Wind: No wind

Location: Brownsville / South Padre Island International Airport

Current Time: Feb 9, 2016 at 12:23:43 AM

Latest Report: Feb 8, 2016 at 10:53 PM


Visibility: 10 mi

Pressure: 30.38 "Hg

Humidity: 74%

Dew point: 42 °F

Location of BrownsvilleLocation

Historic Weather in Brownsville — Graph

°F

Brownsville Temperature Yesterday

Maximum temperature yesterday: 70 °F (at 11:53 AM)
Minimum temperature yesterday: 50 °F (at 9:53 PM)
Average temperature yesterday: 58 °F

High & Low Weather Summary for the Past Weeks

 TemperatureHumidityPressure
High82 °F (Jan 31, 1:53 PM)100% (Jan 26, 4:53 AM)30.47 "Hg (Jan 26, 4:53 AM)
Low39 °F (Feb 7, 3:53 AM)14% (Feb 6, 3:53 PM)29.56 "Hg (Feb 2, 2:53 AM)
Average60 °F70%30.09 "Hg
* Reported Jan 24 10:53 PM — Feb 8 10:53 PM, Brownsville, Weather by CustomWeather, © 2016

Note: Actual official high and low records may vary slightly from our data, if they occured in-between our weather recording intervals... More about our weather records

Advertising

Brownsville Weather History for the Previous 24 Hours

 ConditionsComfort  
Time TempWeatherWind HumidityBarometerVisibility
10:53 PM
Mon, Feb 8
50 °FClear.No wind74%30.38 "Hg10 mi
9:53 PM50 °FClear.No wind74%30.37 "Hg10 mi
8:53 PM52 °FClear.No wind66%30.36 "Hg10 mi
7:53 PM55 °FClear.No wind55%30.35 "Hg10 mi
6:53 PM57 °FClear.3 mph49%30.34 "Hg10 mi
5:53 PM59 °FSunny.7 mph44%30.32 "Hg10 mi
4:53 PM61 °FSunny.12 mph48%30.32 "Hg10 mi
3:53 PM62 °FSunny.13 mph50%30.31 "Hg10 mi
2:53 PM63 °FSunny.17 mph56%30.31 "Hg10 mi
1:53 PM66 °FSunny.20 mph56%30.32 "Hg10 mi
12:53 PM66 °FSunny.17 mph50%30.32 "Hg10 mi
11:53 AM70 °FSunny.12 mph53%30.32 "Hg10 mi
10:53 AM69 °FSunny.12 mph55%30.32 "Hg10 mi
9:53 AM66 °FSunny.12 mph68%30.31 "Hg10 mi
8:53 AM61 °FSunny.5 mph87%30.28 "Hg10 mi
7:53 AM53 °FPartly sunny.No wind96%30.24 "Hg10 mi
6:53 AM53 °FClear.No wind96%30.22 "Hg10 mi
5:53 AM53 °FClear.No wind96%30.20 "Hg10 mi
4:53 AM54 °FClear.3 mph97%30.17 "Hg10 mi
3:53 AM54 °FClear.3 mph90%30.15 "Hg10 mi
2:53 AM54 °FClear.No wind93%30.16 "Hg10 mi
1:53 AM54 °FClear.5 mph90%30.16 "Hg10 mi
12:53 AM54 °FClear.3 mph90%30.16 "Hg10 mi
Weather by CustomWeather, © 2016

See weather overviewHow to use our weather pages